contact:dominique.lefevre@mio.osupytheas.fr, maurice.libes@osupytheas.fr, didier.mallarino@osupytheas.fr
Project:EMSO http://www.emso-fr.org/EMSO-France
Depth: 2436.0 m
Title:EMSO Ligure Ouest : Data MII capteur CSTAR
DateTime,Latitude,Longitude,Instrument_Serial,Reference_Counts,Signal_Counts,Corrected_Signal_raw_counts,Calculated_Beam_c_inverse_meters,Internal_thermistor_counts
DateTime,Latitude,Longitude,Instrument_Serial,Reference_Counts,Signal_Counts,Corrected_Signal_raw_counts,Calculated_Beam_c_inverse_meters,Internal_thermistor_counts
2023-12-15T00:01:03,42.805,6.029,CST-1368DR,4085,4319,11201,01.329,553
2023-12-15T00:04:04,42.805,6.029,CST-1368DR,4085,4319,11201,01.329,553
2023-12-15T00:07:06,42.805,6.029,CST-1368DR,4085,4328,11225,01.321,553
2023-12-15T00:10:07,42.805,6.029,CST-1368DR,4085,4329,11228,01.320,553
2023-12-15T00:15:07,42.805,6.029,CST-1368DR,4085,4323,11211,01.326,553
2023-12-15T00:18:08,42.805,6.029,CST-1368DR,4085,4325,11218,01.323,553
2023-12-15T00:21:10,42.805,6.029,CST-1368DR,4085,4325,11218,01.323,553
2023-12-15T00:24:11,42.805,6.029,CST-1368DR,4085,4322,11210,01.326,553
2023-12-15T00:27:13,42.805,6.029,CST-1368DR,4085,4328,11224,01.321,553
2023-12-15T00:30:15,42.805,6.029,CST-1368DR,4085,4334,11239,01.316,553
2023-12-15T00:33:16,42.805,6.029,CST-1368DR,4085,4322,11210,01.326,553
2023-12-15T00:36:18,42.805,6.029,CST-1368DR,4085,4324,11214,01.325,553
2023-12-15T00:39:19,42.805,6.029,CST-1368DR,4085,4322,11209,01.326,553
2023-12-15T00:42:21,42.805,6.029,CST-1368DR,4085,4324,11214,01.325,553
2023-12-15T00:45:23,42.805,6.029,CST-1368DR,4085,4329,11227,01.320,553
2023-12-15T00:48:24,42.805,6.029,CST-1368DR,4085,4324,11215,01.324,553
2023-12-15T00:51:26,42.805,6.029,CST-1368DR,4085,4328,11225,01.321,553
2023-12-15T00:54:27,42.805,6.029,CST-1368DR,4085,4332,11236,01.317,553
2023-12-15T00:57:29,42.805,6.029,CST-1368DR,4085,4328,11225,01.321,553
2023-12-15T01:00:30,42.805,6.029,CST-1368DR,4085,4334,11239,01.316,553
2023-12-15T01:03:32,42.805,6.029,CST-1368DR,4085,4320,11204,01.328,553
2023-12-15T01:06:34,42.805,6.029,CST-1368DR,4085,4327,11221,01.322,553
2023-12-15T01:09:35,42.805,6.029,CST-1368DR,4085,4328,11225,01.321,553
2023-12-15T01:12:37,42.805,6.029,CST-1368DR,4085,4332,11234,01.317,553
2023-12-15T01:15:38,42.805,6.029,CST-1368DR,4085,4328,11224,01.321,553
2023-12-15T01:18:40,42.805,6.029,CST-1368DR,4085,4334,11241,01.315,553
2023-12-15T01:21:41,42.805,6.029,CST-1368DR,4085,4333,11239,01.316,553
2023-12-15T01:24:43,42.805,6.029,CST-1368DR,4085,4331,11232,01.318,553
2023-12-15T01:27:45,42.805,6.029,CST-1368DR,4085,4328,11224,01.321,553
2023-12-15T01:30:46,42.805,6.029,CST-1368DR,4085,4329,11227,01.320,553
2023-12-15T01:33:48,42.805,6.029,CST-1368DR,4085,4337,11249,01.312,553
2023-12-15T01:36:49,42.805,6.029,CST-1368DR,4085,4329,11227,01.320,553
2023-12-15T01:39:51,42.805,6.029,CST-1368DR,4085,4325,11218,01.323,553
2023-12-15T01:42:53,42.805,6.029,CST-1368DR,4085,4327,11221,01.322,553
2023-12-15T01:45:54,42.805,6.029,CST-1368DR,4085,4338,11250,01.312,553
2023-12-15T01:48:56,42.805,6.029,CST-1368DR,4085,4330,11230,01.319,553
2023-12-15T01:51:57,42.805,6.029,CST-1368DR,4085,4326,11219,01.323,553
2023-12-15T01:54:59,42.805,6.029,CST-1368DR,4085,4327,11221,01.322,553
2023-12-15T01:58:00,42.805,6.029,CST-1368DR,4085,4341,11258,01.309,553
2023-12-15T02:01:02,42.805,6.029,CST-1368DR,4085,4341,11258,01.309,553
2023-12-15T02:04:04,42.805,6.029,CST-1368DR,4085,4345,11269,01.305,553
2023-12-15T02:07:05,42.805,6.029,CST-1368DR,4085,4345,11270,01.305,553
2023-12-15T02:10:07,42.805,6.029,CST-1368DR,4085,4349,11278,01.302,553
2023-12-15T02:13:08,42.805,6.029,CST-1368DR,4085,4354,11292,01.297,553
2023-12-15T02:16:10,42.805,6.029,CST-1368DR,4085,4349,11279,01.301,553
2023-12-15T02:19:11,42.805,6.029,CST-1368DR,4085,4354,11291,01.297,553
2023-12-15T02:22:13,42.805,6.029,CST-1368DR,4085,4350,11283,01.300,553
2023-12-15T02:25:15,42.805,6.029,CST-1368DR,4085,4350,11283,01.300,553
2023-12-15T02:28:16,42.805,6.029,CST-1368DR,4085,4351,11284,01.300,553
2023-12-15T02:31:18,42.805,6.029,CST-1368DR,4085,4348,11276,01.302,553
2023-12-15T02:34:19,42.805,6.029,CST-1368DR,4085,4346,11271,01.304,553
2023-12-15T02:37:21,42.805,6.029,CST-1368DR,4085,4348,11276,01.302,553
2023-12-15T02:40:23,42.805,6.029,CST-1368DR,4085,4335,11243,01.314,553
2023-12-15T02:43:24,42.805,6.029,CST-1368DR,4085,4350,11282,01.300,553
2023-12-15T02:46:26,42.805,6.029,CST-1368DR,4085,4354,11291,01.297,553
2023-12-15T02:49:27,42.805,6.029,CST-1368DR,4085,4352,11286,01.299,553
2023-12-15T02:52:29,42.805,6.029,CST-1368DR,4085,4342,11260,01.308,553
2023-12-15T02:55:30,42.805,6.029,CST-1368DR,4085,4329,11227,01.320,553
2023-12-15T02:58:32,42.805,6.029,CST-1368DR,4085,4354,11293,01.296,553
2023-12-15T03:01:34,42.805,6.029,CST-1368DR,4085,4355,11296,01.295,553
2023-12-15T03:04:35,42.805,6.029,CST-1368DR,4085,4337,11249,01.312,553
2023-12-15T03:07:37,42.805,6.029,CST-1368DR,4085,4352,11287,01.299,553
2023-12-15T03:10:38,42.805,6.029,CST-1368DR,4085,4354,11293,01.296,553
2023-12-15T03:13:40,42.805,6.029,CST-1368DR,4085,4353,11289,01.298,553
2023-12-15T03:16:41,42.805,6.029,CST-1368DR,4085,4355,11294,01.296,553
2023-12-15T03:19:43,42.805,6.029,CST-1368DR,4085,4354,11293,01.296,553
2023-12-15T03:22:45,42.805,6.029,CST-1368DR,4085,4352,11286,01.299,553
2023-12-15T03:25:46,42.805,6.029,CST-1368DR,4085,4351,11286,01.299,553
2023-12-15T03:28:48,42.805,6.029,CST-1368DR,4085,4354,11293,01.296,553
2023-12-15T03:31:49,42.805,6.029,CST-1368DR,4085,4354,11293,01.296,553
2023-12-15T03:34:51,42.805,6.029,CST-1368DR,4085,4349,11280,01.301,553
2023-12-15T03:37:52,42.805,6.029,CST-1368DR,4085,4349,11280,01.301,553
2023-12-15T03:40:54,42.805,6.029,CST-1368DR,4085,4352,11287,01.299,553
2023-12-15T03:43:56,42.805,6.029,CST-1368DR,4085,4350,11283,01.300,553
2023-12-15T03:46:57,42.805,6.029,CST-1368DR,4085,4354,11292,01.297,553
2023-12-15T03:49:59,42.805,6.029,CST-1368DR,4085,4351,11284,01.300,553
2023-12-15T03:53:00,42.805,6.029,CST-1368DR,4085,4348,11276,01.302,553
2023-12-15T03:56:02,42.805,6.029,CST-1368DR,4085,4350,11281,01.301,553
2023-12-15T03:59:04,42.805,6.029,CST-1368DR,4085,4350,11281,01.301,553
2023-12-15T04:02:05,42.805,6.029,CST-1368DR,4085,4350,11283,01.300,553
2023-12-15T04:05:07,42.805,6.029,CST-1368DR,4085,4354,11291,01.297,553
2023-12-15T04:08:08,42.805,6.029,CST-1368DR,4085,4355,11295,01.296,553
2023-12-15T04:11:10,42.805,6.029,CST-1368DR,4085,4354,11293,01.296,553
2023-12-15T04:14:11,42.805,6.029,CST-1368DR,4085,4350,11281,01.301,553
2023-12-15T04:17:13,42.805,6.029,CST-1368DR,4085,4349,11280,01.301,552
2023-12-15T04:20:15,42.805,6.029,CST-1368DR,4085,4352,11287,01.299,553
2023-12-15T04:23:16,42.805,6.029,CST-1368DR,4085,4351,11284,01.300,553
2023-12-15T04:26:18,42.805,6.029,CST-1368DR,4085,4351,11285,01.299,553
2023-12-15T04:29:19,42.805,6.029,CST-1368DR,4085,4353,11289,01.298,553
2023-12-15T04:32:21,42.805,6.029,CST-1368DR,4085,4353,11291,01.297,553
2023-12-15T04:35:22,42.805,6.029,CST-1368DR,4085,4352,11288,01.298,553
2023-12-15T04:38:24,42.805,6.029,CST-1368DR,4085,4351,11286,01.299,553
2023-12-15T04:41:26,42.805,6.029,CST-1368DR,4085,4354,11291,01.297,553
2023-12-15T04:44:27,42.805,6.029,CST-1368DR,4085,4351,11284,01.300,553
2023-12-15T04:47:29,42.805,6.029,CST-1368DR,4085,4354,11293,01.296,553
2023-12-15T04:50:30,42.805,6.029,CST-1368DR,4085,4353,11289,01.298,553
2023-12-15T04:53:32,42.805,6.029,CST-1368DR,4085,4352,11286,01.299,553
2023-12-15T04:56:34,42.805,6.029,CST-1368DR,4085,4351,11285,01.299,553
2023-12-15T04:59:35,42.805,6.029,CST-1368DR,4085,4351,11286,01.299,553
2023-12-15T05:02:37,42.805,6.029,CST-1368DR,4085,4350,11283,01.300,553
2023-12-15T05:05:38,42.805,6.029,CST-1368DR,4085,4352,11287,01.299,553
2023-12-15T05:08:40,42.805,6.029,CST-1368DR,4085,4348,11278,01.302,553
2023-12-15T05:11:41,42.805,6.029,CST-1368DR,4085,4351,11286,01.299,553
2023-12-15T05:14:43,42.805,6.029,CST-1368DR,4085,4348,11277,01.302,553
2023-12-15T05:17:45,42.805,6.029,CST-1368DR,4085,4350,11282,01.300,553
2023-12-15T05:20:46,42.805,6.029,CST-1368DR,4085,4349,11279,01.301,553
2023-12-15T05:23:48,42.805,6.029,CST-1368DR,4085,4350,11283,01.300,553
2023-12-15T05:26:49,42.805,6.029,CST-1368DR,4085,4351,11285,01.299,553
2023-12-15T05:29:51,42.805,6.029,CST-1368DR,4085,4350,11282,01.300,553
2023-12-15T05:32:53,42.805,6.029,CST-1368DR,4085,4351,11284,01.300,553
2023-12-15T05:35:54,42.805,6.029,CST-1368DR,4085,4348,11276,01.302,553
2023-12-15T05:38:56,42.805,6.029,CST-1368DR,4085,4350,11282,01.300,553
2023-12-15T05:41:57,42.805,6.029,CST-1368DR,4085,4350,11283,01.300,553
2023-12-15T05:44:59,42.805,6.029,CST-1368DR,4085,4349,11278,01.302,553
2023-12-15T05:48:00,42.805,6.029,CST-1368DR,4085,4351,11284,01.300,553
2023-12-15T05:51:02,42.805,6.029,CST-1368DR,4085,4350,11282,01.300,553
2023-12-15T05:54:04,42.805,6.029,CST-1368DR,4085,4349,11280,01.301,553
2023-12-15T05:57:05,42.805,6.029,CST-1368DR,4085,4347,11275,01.303,553
2023-12-15T06:00:07,42.805,6.029,CST-1368DR,4085,4351,11284,01.300,553
2023-12-15T06:03:08,42.805,6.029,CST-1368DR,4085,4350,11282,01.300,553
2023-12-15T06:06:10,42.805,6.029,CST-1368DR,4085,4348,11276,01.302,553
2023-12-15T06:09:11,42.805,6.029,CST-1368DR,4085,4349,11280,01.301,553
2023-12-15T06:12:13,42.805,6.029,CST-1368DR,4085,4348,11278,01.302,553
2023-12-15T06:15:15,42.805,6.029,CST-1368DR,4085,4350,11281,01.301,553
2023-12-15T06:18:16,42.805,6.029,CST-1368DR,4085,4349,11278,01.302,553
2023-12-15T06:21:18,42.805,6.029,CST-1368DR,4085,4351,11285,01.299,553
2023-12-15T06:24:19,42.805,6.029,CST-1368DR,4085,4350,11281,01.301,553
2023-12-15T06:27:21,42.805,6.029,CST-1368DR,4085,4349,11278,01.302,553
2023-12-15T06:30:22,42.805,6.029,CST-1368DR,4085,4351,11285,01.299,553
2023-12-15T06:33:24,42.805,6.029,CST-1368DR,4085,4349,11280,01.301,553
2023-12-15T06:36:26,42.805,6.029,CST-1368DR,4085,4347,11273,01.304,553
2023-12-15T06:39:27,42.805,6.029,CST-1368DR,4085,4349,11280,01.301,553
2023-12-15T06:42:29,42.805,6.029,CST-1368DR,4085,4348,11277,01.302,553
2023-12-15T06:45:30,42.805,6.029,CST-1368DR,4085,4346,11272,01.304,553
2023-12-15T06:48:32,42.805,6.029,CST-1368DR,4085,4346,11271,01.304,553
2023-12-15T06:51:34,42.805,6.029,CST-1368DR,4085,4348,11276,01.302,553
2023-12-15T06:54:35,42.805,6.029,CST-1368DR,4085,4347,11275,01.303,553
2023-12-15T06:57:37,42.805,6.029,CST-1368DR,4085,4349,11279,01.301,553
2023-12-15T07:00:38,42.805,6.029,CST-1368DR,4085,4345,11269,01.305,553
2023-12-15T07:03:40,42.805,6.029,CST-1368DR,4085,4348,11276,01.302,553
2023-12-15T07:06:41,42.805,6.029,CST-1368DR,4085,4347,11274,01.303,553
2023-12-15T07:09:43,42.805,6.029,CST-1368DR,4085,4350,11282,01.300,553
2023-12-15T07:12:45,42.805,6.029,CST-1368DR,4085,4349,11280,01.301,553
2023-12-15T07:15:46,42.805,6.029,CST-1368DR,4085,4386,11375,01.268,553
2023-12-15T07:18:48,42.805,6.029,CST-1368DR,4085,4386,11376,01.267,553
2023-12-15T07:21:49,42.805,6.029,CST-1368DR,4085,4386,11375,01.268,553
2023-12-15T07:24:51,42.805,6.029,CST-1368DR,4085,4385,11374,01.268,553
2023-12-15T07:27:52,42.805,6.029,CST-1368DR,4085,4386,11376,01.267,553
2023-12-15T07:30:54,42.805,6.029,CST-1368DR,4085,4386,11374,01.268,553
2023-12-15T07:33:56,42.805,6.029,CST-1368DR,4085,4386,11374,01.268,553
2023-12-15T07:36:58,42.805,6.029,CST-1368DR,4085,4385,11374,01.268,553
2023-12-15T07:39:59,42.805,6.029,CST-1368DR,4085,4386,11376,01.267,553
2023-12-15T07:43:01,42.805,6.029,CST-1368DR,4085,4386,11375,01.268,553
2023-12-15T07:46:02,42.805,6.029,CST-1368DR,4085,4386,11375,01.268,553
2023-12-15T07:49:04,42.805,6.029,CST-1368DR,4085,4386,11375,01.268,553
2023-12-15T07:52:05,42.805,6.029,CST-1368DR,4085,4385,11372,01.269,553
2023-12-15T07:55:07,42.805,6.029,CST-1368DR,4085,4385,11373,01.268,553
2023-12-15T07:58:09,42.805,6.029,CST-1368DR,4085,4385,11373,01.268,553
2023-12-15T08:01:10,42.805,6.029,CST-1368DR,4085,4385,11374,01.268,553
2023-12-15T08:04:12,42.805,6.029,CST-1368DR,4085,4386,11374,01.268,553
2023-12-15T08:07:13,42.805,6.029,CST-1368DR,4085,4386,11376,01.267,553
2023-12-15T08:10:15,42.805,6.029,CST-1368DR,4085,4385,11374,01.268,553
2023-12-15T08:13:16,42.805,6.029,CST-1368DR,4085,4386,11375,01.268,553
2023-12-15T08:16:18,42.805,6.029,CST-1368DR,4085,4385,11374,01.268,553
2023-12-15T08:19:20,42.805,6.029,CST-1368DR,4085,4385,11373,01.268,553
2023-12-15T08:22:21,42.805,6.029,CST-1368DR,4085,4385,11373,01.268,553
2023-12-15T08:25:23,42.805,6.029,CST-1368DR,4085,4385,11373,01.268,553
2023-12-15T08:28:24,42.805,6.029,CST-1368DR,4085,4382,11366,01.271,553
2023-12-15T08:31:26,42.805,6.029,CST-1368DR,4085,4385,11373,01.268,553
2023-12-15T08:34:28,42.805,6.029,CST-1368DR,4085,4385,11372,01.269,553
2023-12-15T08:37:29,42.805,6.029,CST-1368DR,4085,4385,11372,01.269,553
2023-12-15T08:40:31,42.805,6.029,CST-1368DR,4085,4385,11373,01.268,553
2023-12-15T08:43:32,42.805,6.029,CST-1368DR,4085,4384,11371,01.269,553
2023-12-15T08:46:34,42.805,6.029,CST-1368DR,4085,4386,11374,01.268,553
2023-12-15T08:49:35,42.805,6.029,CST-1368DR,4085,4385,11372,01.269,553
2023-12-15T08:52:37,42.805,6.029,CST-1368DR,4085,4385,11372,01.269,553
2023-12-15T08:55:39,42.805,6.029,CST-1368DR,4085,4384,11370,01.269,553
2023-12-15T08:58:40,42.805,6.029,CST-1368DR,4085,4384,11371,01.269,553
2023-12-15T09:01:42,42.805,6.029,CST-1368DR,4085,4384,11370,01.269,553
2023-12-15T09:04:43,42.805,6.029,CST-1368DR,4085,4384,11370,01.269,553
2023-12-15T09:07:45,42.805,6.029,CST-1368DR,4085,4384,11370,01.269,553
2023-12-15T09:10:46,42.805,6.029,CST-1368DR,4085,4384,11371,01.269,553
2023-12-15T09:13:48,42.805,6.029,CST-1368DR,4085,4384,11370,01.269,553
2023-12-15T09:16:50,42.805,6.029,CST-1368DR,4085,4384,11370,01.269,553
2023-12-15T09:19:51,42.805,6.029,CST-1368DR,4085,4385,11372,01.269,553
2023-12-15T09:22:53,42.805,6.029,CST-1368DR,4085,4385,11372,01.269,553
2023-12-15T09:25:54,42.805,6.029,CST-1368DR,4085,4385,11372,01.269,553
2023-12-15T09:28:56,42.805,6.029,CST-1368DR,4085,4385,11372,01.269,553
2023-12-15T09:31:58,42.805,6.029,CST-1368DR,4085,4385,11372,01.269,553
2023-12-15T09:34:59,42.805,6.029,CST-1368DR,4085,4384,11370,01.269,553
2023-12-15T09:38:01,42.805,6.029,CST-1368DR,4085,4385,11374,01.268,553
2023-12-15T09:41:02,42.805,6.029,CST-1368DR,4085,4385,11372,01.269,553
2023-12-15T09:44:04,42.805,6.029,CST-1368DR,4085,4385,11372,01.269,553
2023-12-15T09:47:06,42.805,6.029,CST-1368DR,4085,4385,11373,01.268,553
2023-12-15T09:50:07,42.805,6.029,CST-1368DR,4085,4383,11369,01.270,553
2023-12-15T09:53:09,42.805,6.029,CST-1368DR,4085,4384,11371,01.269,553
2023-12-15T09:56:10,42.805,6.029,CST-1368DR,4085,4385,11372,01.269,553
2023-12-15T09:59:12,42.805,6.029,CST-1368DR,4085,4384,11371,01.269,553
2023-12-15T10:02:13,42.805,6.029,CST-1368DR,4085,4385,11372,01.269,553
2023-12-15T10:05:15,42.805,6.029,CST-1368DR,4085,4384,11371,01.269,553
2023-12-15T10:08:17,42.805,6.029,CST-1368DR,4085,4385,11372,01.269,553
2023-12-15T10:11:18,42.805,6.029,CST-1368DR,4085,4385,11372,01.269,553
2023-12-15T10:14:20,42.805,6.029,CST-1368DR,4085,4384,11370,01.269,553
2023-12-15T10:17:21,42.805,6.029,CST-1368DR,4085,4384,11370,01.269,553
2023-12-15T10:20:23,42.805,6.029,CST-1368DR,4085,4385,11372,01.269,553
2023-12-15T10:23:24,42.805,6.029,CST-1368DR,4085,4385,11372,01.269,553
2023-12-15T10:26:26,42.805,6.029,CST-1368DR,4085,4385,11372,01.269,553
2023-12-15T10:29:28,42.805,6.029,CST-1368DR,4085,4385,11372,01.269,553
2023-12-15T10:32:29,42.805,6.029,CST-1368DR,4085,4384,11370,01.269,553
2023-12-15T10:35:31,42.805,6.029,CST-1368DR,4085,4385,11372,01.269,553
2023-12-15T10:38:32,42.805,6.029,CST-1368DR,4085,4385,11372,01.269,553
2023-12-15T10:41:34,42.805,6.029,CST-1368DR,4085,4384,11370,01.269,553
2023-12-15T10:44:36,42.805,6.029,CST-1368DR,4085,4384,11370,01.269,553
2023-12-15T10:47:37,42.805,6.029,CST-1368DR,4085,4385,11372,01.269,553
2023-12-15T10:50:39,42.805,6.029,CST-1368DR,4085,4384,11371,01.269,553
2023-12-15T10:53:40,42.805,6.029,CST-1368DR,4085,4384,11371,01.269,553
2023-12-15T10:56:42,42.805,6.029,CST-1368DR,4085,4384,11371,01.269,553
2023-12-15T10:59:43,42.805,6.029,CST-1368DR,4085,4385,11372,01.269,553
2023-12-15T11:02:45,42.805,6.029,CST-1368DR,4085,4385,11373,01.268,553
2023-12-15T11:05:47,42.805,6.029,CST-1368DR,4085,4384,11370,01.269,553
2023-12-15T11:08:48,42.805,6.029,CST-1368DR,4085,4385,11372,01.269,553
2023-12-15T11:11:50,42.805,6.029,CST-1368DR,4085,4385,11372,01.269,553
2023-12-15T11:14:51,42.805,6.029,CST-1368DR,4085,4384,11370,01.269,553
2023-12-15T11:17:53,42.805,6.029,CST-1368DR,4085,4383,11368,01.270,553
2023-12-15T11:20:54,42.805,6.029,CST-1368DR,4085,4376,11350,01.276,553
2023-12-15T11:23:56,42.805,6.029,CST-1368DR,4085,4384,11370,01.269,553
2023-12-15T11:26:58,42.805,6.029,CST-1368DR,4085,4384,11370,01.269,553
2023-12-15T11:29:59,42.805,6.029,CST-1368DR,4085,4383,11367,01.270,553
2023-12-15T11:33:02,42.805,6.029,CST-1368DR,4085,4383,11369,01.270,553
2023-12-15T11:36:04,42.805,6.029,CST-1368DR,4085,4384,11371,01.269,553
2023-12-15T11:39:05,42.805,6.029,CST-1368DR,4085,4383,11369,01.270,553
2023-12-15T11:42:07,42.805,6.029,CST-1368DR,4085,4382,11366,01.271,553
2023-12-15T11:45:08,42.805,6.029,CST-1368DR,4085,4384,11370,01.269,553
2023-12-15T11:48:10,42.805,6.029,CST-1368DR,4085,4383,11367,01.270,553
2023-12-15T11:51:12,42.805,6.029,CST-1368DR,4085,4383,11369,01.270,553
2023-12-15T11:54:13,42.805,6.029,CST-1368DR,4085,4381,11362,01.272,553
2023-12-15T11:57:15,42.805,6.029,CST-1368DR,4085,4383,11369,01.270,553
2023-12-15T12:00:16,42.805,6.029,CST-1368DR,4085,4384,11370,01.269,553
2023-12-15T12:03:18,42.805,6.029,CST-1368DR,4085,4378,11355,01.275,553
2023-12-15T12:06:19,42.805,6.029,CST-1368DR,4085,4383,11367,01.270,553
2023-12-15T12:09:21,42.805,6.029,CST-1368DR,4085,4379,11357,01.274,553
2023-12-15T12:12:23,42.805,6.029,CST-1368DR,4085,4383,11368,01.270,553
2023-12-15T12:15:24,42.805,6.029,CST-1368DR,4085,4382,11365,01.271,553
2023-12-15T12:18:26,42.805,6.029,CST-1368DR,4085,4382,11364,01.271,553
2023-12-15T12:21:27,42.805,6.029,CST-1368DR,4085,4381,11363,01.272,553
2023-12-15T12:24:29,42.805,6.029,CST-1368DR,4085,4382,11366,01.271,553
2023-12-15T12:27:31,42.805,6.029,CST-1368DR,4085,4383,11367,01.270,553
2023-12-15T12:30:32,42.805,6.029,CST-1368DR,4085,4382,11365,01.271,553
2023-12-15T12:33:34,42.805,6.029,CST-1368DR,4085,4379,11357,01.274,553
2023-12-15T12:36:35,42.805,6.029,CST-1368DR,4085,4381,11362,01.272,553
2023-12-15T12:39:37,42.805,6.029,CST-1368DR,4085,4381,11363,01.272,553
2023-12-15T12:42:38,42.805,6.029,CST-1368DR,4085,4373,11341,01.279,553
2023-12-15T12:45:40,42.805,6.029,CST-1368DR,4085,4372,11340,01.280,553
2023-12-15T12:48:42,42.805,6.029,CST-1368DR,4085,4379,11356,01.274,553
2023-12-15T12:51:43,42.805,6.029,CST-1368DR,4085,4380,11359,01.273,553
2023-12-15T12:54:45,42.805,6.029,CST-1368DR,4085,4373,11342,01.279,553
2023-12-15T12:57:46,42.805,6.029,CST-1368DR,4085,4374,11345,01.278,553
2023-12-15T13:00:48,42.805,6.029,CST-1368DR,4085,4368,11328,01.284,553
2023-12-15T13:03:49,42.805,6.029,CST-1368DR,4085,4370,11335,01.282,553
2023-12-15T13:06:51,42.805,6.029,CST-1368DR,4085,4368,11330,01.283,553
2023-12-15T13:09:53,42.805,6.029,CST-1368DR,4085,4366,11324,01.285,553
2023-12-15T13:12:54,42.805,6.029,CST-1368DR,4085,4365,11322,01.286,553
2023-12-15T13:15:56,42.805,6.029,CST-1368DR,4085,4374,11344,01.278,553
2023-12-15T13:18:57,42.805,6.029,CST-1368DR,4085,4369,11332,01.283,553
2023-12-15T13:21:59,42.805,6.029,CST-1368DR,4085,4367,11327,01.284,553
2023-12-15T13:25:00,42.805,6.029,CST-1368DR,4085,4366,11324,01.285,553
2023-12-15T13:28:02,42.805,6.029,CST-1368DR,4085,4364,11319,01.287,553
2023-12-15T13:31:05,42.805,6.029,CST-1368DR,4085,4362,11314,01.289,553
2023-12-15T13:34:07,42.805,6.029,CST-1368DR,4085,4365,11321,01.287,553
2023-12-15T13:37:08,42.805,6.029,CST-1368DR,4085,4365,11321,01.287,553
2023-12-15T13:40:10,42.805,6.029,CST-1368DR,4085,4362,11313,01.289,553
2023-12-15T13:43:12,42.805,6.029,CST-1368DR,4085,4359,11304,01.293,553
2023-12-15T13:46:13,42.805,6.029,CST-1368DR,4085,4361,11310,01.290,553
2023-12-15T13:49:15,42.805,6.029,CST-1368DR,4085,4360,11308,01.291,553
2023-12-15T13:52:16,42.805,6.029,CST-1368DR,4085,4357,11300,01.294,553
2023-12-15T13:55:18,42.805,6.029,CST-1368DR,4085,4356,11298,01.295,553
2023-12-15T13:58:19,42.805,6.029,CST-1368DR,4085,4357,11300,01.294,553
2023-12-15T14:01:21,42.805,6.029,CST-1368DR,4085,4358,11302,01.293,553
2023-12-15T14:04:23,42.805,6.029,CST-1368DR,4085,4359,11306,01.292,553
2023-12-15T14:07:24,42.805,6.029,CST-1368DR,4085,4364,11319,01.287,553
2023-12-15T14:10:26,42.805,6.029,CST-1368DR,4085,4358,11304,01.293,553
2023-12-15T14:13:27,42.805,6.029,CST-1368DR,4085,4355,11296,01.295,553
2023-12-15T14:16:29,42.805,6.029,CST-1368DR,4085,4355,11294,01.296,553
2023-12-15T14:19:30,42.805,6.029,CST-1368DR,4085,4353,11291,01.297,553
2023-12-15T14:22:32,42.805,6.029,CST-1368DR,4085,4353,11289,01.298,553
2023-12-15T14:25:34,42.805,6.029,CST-1368DR,4084,4352,11291,01.297,553
2023-12-15T14:28:35,42.805,6.029,CST-1368DR,4085,4354,11292,01.297,553
2023-12-15T14:31:37,42.805,6.029,CST-1368DR,4085,4352,11287,01.299,553
2023-12-15T14:34:38,42.805,6.029,CST-1368DR,4085,4354,11293,01.296,553
2023-12-15T14:37:40,42.805,6.029,CST-1368DR,4085,4352,11287,01.299,553
2023-12-15T14:40:42,42.805,6.029,CST-1368DR,4084,4351,11288,01.298,553
2023-12-15T14:43:43,42.805,6.029,CST-1368DR,4085,4352,11287,01.299,553
2023-12-15T14:46:45,42.805,6.029,CST-1368DR,4085,4355,11296,01.295,553
2023-12-15T14:49:46,42.805,6.029,CST-1368DR,4085,4352,11286,01.299,553
2023-12-15T14:52:48,42.805,6.029,CST-1368DR,4085,4353,11289,01.298,553
2023-12-15T14:55:49,42.805,6.029,CST-1368DR,4085,4353,11289,01.298,553
2023-12-15T14:58:51,42.805,6.029,CST-1368DR,4085,4351,11284,01.300,553
2023-12-15T15:01:53,42.805,6.029,CST-1368DR,4085,4350,11282,01.300,553
2023-12-15T15:04:54,42.805,6.029,CST-1368DR,4085,4351,11284,01.300,553
2023-12-15T15:07:56,42.805,6.029,CST-1368DR,4085,4351,11285,01.299,553
2023-12-15T15:10:57,42.805,6.029,CST-1368DR,4085,4352,11286,01.299,553
2023-12-15T15:13:59,42.805,6.029,CST-1368DR,4085,4351,11284,01.300,552
2023-12-15T15:17:00,42.805,6.029,CST-1368DR,4085,4351,11284,01.300,553
2023-12-15T15:20:02,42.805,6.029,CST-1368DR,4085,4351,11284,01.300,553
2023-12-15T15:23:04,42.805,6.029,CST-1368DR,4084,4351,11286,01.299,553
2023-12-15T15:26:05,42.805,6.029,CST-1368DR,4085,4351,11285,01.299,553
2023-12-15T15:29:07,42.805,6.029,CST-1368DR,4085,4350,11283,01.300,553
2023-12-15T15:32:08,42.805,6.029,CST-1368DR,4084,4349,11281,01.301,553
2023-12-15T15:35:10,42.805,6.029,CST-1368DR,4085,4351,11284,01.300,553
2023-12-15T15:38:12,42.805,6.029,CST-1368DR,4085,4352,11287,01.299,553
2023-12-15T15:41:13,42.805,6.029,CST-1368DR,4084,4351,11286,01.299,553
2023-12-15T15:44:15,42.805,6.029,CST-1368DR,4084,4352,11291,01.297,553
2023-12-15T15:47:16,42.805,6.029,CST-1368DR,4084,4349,11282,01.300,553
2023-12-15T15:50:18,42.805,6.029,CST-1368DR,4084,4351,11288,01.298,553
2023-12-15T15:53:19,42.805,6.029,CST-1368DR,4085,4349,11280,01.301,553
2023-12-15T15:56:21,42.805,6.029,CST-1368DR,4084,4349,11282,01.300,553
2023-12-15T15:59:23,42.805,6.029,CST-1368DR,4085,4351,11284,01.300,553
2023-12-15T16:02:24,42.805,6.029,CST-1368DR,4084,4349,11283,01.300,553
2023-12-15T16:05:26,42.805,6.029,CST-1368DR,4084,4349,11282,01.300,553
2023-12-15T16:08:27,42.805,6.029,CST-1368DR,4085,4348,11278,01.302,553
2023-12-15T16:11:29,42.805,6.029,CST-1368DR,4084,4350,11285,01.299,553
2023-12-15T16:14:30,42.805,6.029,CST-1368DR,4085,4348,11276,01.302,553
2023-12-15T16:17:32,42.805,6.029,CST-1368DR,4084,4348,11280,01.301,553
2023-12-15T16:20:34,42.805,6.029,CST-1368DR,4084,4345,11273,01.304,553
2023-12-15T16:23:35,42.805,6.029,CST-1368DR,4084,4347,11277,01.302,553
2023-12-15T16:26:37,42.805,6.029,CST-1368DR,4084,4347,11278,01.302,553
2023-12-15T16:29:38,42.805,6.029,CST-1368DR,4085,4347,11275,01.303,553
2023-12-15T16:32:40,42.805,6.029,CST-1368DR,4085,4350,11281,01.301,553
2023-12-15T16:35:41,42.805,6.029,CST-1368DR,4084,4347,11276,01.302,553
2023-12-15T16:38:43,42.805,6.029,CST-1368DR,4084,4348,11279,01.301,553